TWG51 EDVE-EDDW

Flight info

Callsign TWG51
Flight time 0h 43m
Altitude 6000
Route NIE Z88 VERED
Aircraft C208/L-DFGRVY/S

Departure

Time 2026-05-05 08:48
Airport Braunschweig-Wolfsburg Airport (EDVE)

Arrival

Time 2026-05-05 09:32
Airport Bremen Airport (EDDW)
Time Latitude Longitude Altitude Speed Heading
2026-05-05 08:28 52.31686 10.55978 290 ft 0 kts 265°
2026-05-05 08:44 52.31685 10.55964 290 ft 5 kts 265°
2026-05-05 08:44 52.31734 10.55932 291 ft 11 kts 356°
2026-05-05 08:44 52.31762 10.56050 291 ft 17 kts 85°
2026-05-05 08:45 52.31775 10.56275 294 ft 19 kts 85°
2026-05-05 08:45 52.31821 10.56406 295 ft 17 kts
2026-05-05 08:45 52.31869 10.56400 298 ft 0 kts 354°
2026-05-05 08:46 52.31874 10.56399 297 ft 4 kts 355°
2026-05-05 08:46 52.31954 10.56367 295 ft 18 kts 309°
2026-05-05 08:47 52.31949 10.56111 301 ft 37 kts 265°
2026-05-05 08:47 52.31908 10.55415 291 ft 83 kts 263°
2026-05-05 08:47 52.31854 10.54414 508 ft 88 kts 266°
2026-05-05 08:47 52.31816 10.53363 722 ft 97 kts 264°
2026-05-05 08:48 52.31738 10.52128 816 ft 121 kts 262°
2026-05-05 08:48 52.31625 10.50652 882 ft 138 kts 264°
2026-05-05 08:48 52.31538 10.49086 1113 ft 134 kts 265°
2026-05-05 08:48 52.31454 10.47616 1417 ft 130 kts 266°
2026-05-05 08:49 52.31367 10.46119 1714 ft 134 kts 265°
2026-05-05 08:49 52.31506 10.44640 2008 ft 135 kts 296°
2026-05-05 08:49 52.32122 10.43458 2305 ft 138 kts 317°
2026-05-05 08:49 52.32830 10.42437 2606 ft 134 kts 314°
2026-05-05 08:50 52.33498 10.41433 2902 ft 127 kts 314°
2026-05-05 08:50 52.34132 10.40480 3201 ft 122 kts 314°
2026-05-05 08:50 52.34766 10.39532 3501 ft 125 kts 316°
2026-05-05 08:50 52.35420 10.38578 3806 ft 130 kts 317°
2026-05-05 08:51 52.36099 10.37569 4105 ft 132 kts 315°
2026-05-05 08:51 52.36759 10.36584 4400 ft 123 kts 314°
2026-05-05 08:51 52.37368 10.35658 4694 ft 115 kts 313°
2026-05-05 08:51 52.37938 10.34791 4973 ft 109 kts 312°
2026-05-05 08:52 52.38506 10.33930 5132 ft 115 kts 313°
2026-05-05 08:52 52.39107 10.33027 5287 ft 119 kts 313°
2026-05-05 08:52 52.39727 10.32097 5447 ft 122 kts 313°
2026-05-05 08:52 52.40359 10.31147 5604 ft 125 kts 313°
2026-05-05 08:53 52.41003 10.30180 5765 ft 126 kts 313°
2026-05-05 08:53 52.41655 10.29198 5911 ft 130 kts 313°
2026-05-05 08:53 52.42347 10.28159 5961 ft 137 kts 314°
2026-05-05 08:53 52.43050 10.27103 6096 ft 137 kts 314°
2026-05-05 08:54 52.43754 10.26042 6229 ft 137 kts 314°
2026-05-05 08:54 52.44456 10.24981 6358 ft 138 kts 314°
2026-05-05 08:54 52.45160 10.23917 6480 ft 138 kts 313°
2026-05-05 08:54 52.45866 10.22849 6603 ft 138 kts 313°
2026-05-05 08:55 52.46564 10.21795 6724 ft 138 kts 313°
2026-05-05 08:55 52.47280 10.20709 6850 ft 139 kts 313°
2026-05-05 08:55 52.47995 10.19628 6976 ft 140 kts 313°
2026-05-05 08:55 52.48713 10.18541 7100 ft 141 kts 313°
2026-05-05 08:56 52.49436 10.17448 7224 ft 141 kts 313°
2026-05-05 08:56 52.50154 10.16357 7348 ft 141 kts 313°
2026-05-05 08:56 52.50872 10.15269 7472 ft 140 kts 313°
2026-05-05 08:56 52.51542 10.14147 7586 ft 138 kts 297°
2026-05-05 08:57 52.51766 10.12667 7710 ft 134 kts 275°
2026-05-05 08:57 52.51916 10.11159 7837 ft 134 kts 278°
2026-05-05 08:57 52.52109 10.09653 7911 ft 138 kts 279°
2026-05-05 08:57 52.52332 10.08087 7919 ft 144 kts 281°
2026-05-05 08:58 52.52570 10.06469 7921 ft 148 kts 281°
2026-05-05 08:58 52.52815 10.04816 7923 ft 150 kts 281°
2026-05-05 08:58 52.53064 10.03142 7925 ft 152 kts 281°
2026-05-05 08:58 52.53316 10.01445 7925 ft 154 kts 281°
2026-05-05 08:59 52.53570 9.99729 7923 ft 155 kts 281°
2026-05-05 08:59 52.53825 9.97998 7922 ft 156 kts 281°
2026-05-05 08:59 52.54081 9.96255 7919 ft 158 kts 281°
2026-05-05 08:59 52.54339 9.94504 7921 ft 158 kts 281°
2026-05-05 09:00 52.54596 9.92756 7919 ft 157 kts 281°
2026-05-05 09:00 52.54851 9.91016 7917 ft 156 kts 281°
2026-05-05 09:00 52.55105 9.89285 7913 ft 156 kts 281°
2026-05-05 09:00 52.55357 9.87553 7913 ft 155 kts 281°
2026-05-05 09:01 52.55606 9.85850 7915 ft 155 kts 281°
2026-05-05 09:01 52.55861 9.84109 7914 ft 155 kts 281°
2026-05-05 09:01 52.56109 9.82405 7914 ft 155 kts 281°
2026-05-05 09:01 52.56361 9.80680 7913 ft 155 kts 281°
2026-05-05 09:02 52.56611 9.78952 7911 ft 155 kts 281°
2026-05-05 09:02 52.56861 9.77232 7910 ft 155 kts 281°
2026-05-05 09:02 52.57111 9.75509 7909 ft 155 kts 281°
2026-05-05 09:02 52.57363 9.73779 7911 ft 157 kts 281°
2026-05-05 09:03 52.57619 9.72020 7913 ft 159 kts 281°
2026-05-05 09:03 52.57876 9.70247 7916 ft 160 kts 281°
2026-05-05 09:03 52.58132 9.68479 7921 ft 162 kts 281°
2026-05-05 09:03 52.58397 9.66637 7925 ft 165 kts 281°
2026-05-05 09:04 52.58666 9.64807 7923 ft 169 kts 281°
2026-05-05 09:04 52.58941 9.62894 7924 ft 174 kts 280°
2026-05-05 09:04 52.59219 9.60936 7914 ft 176 kts 281°
2026-05-05 09:04 52.59499 9.58999 7909 ft 171 kts 281°
2026-05-05 09:05 52.59770 9.57118 7905 ft 167 kts 281°
2026-05-05 09:05 52.60034 9.55272 7904 ft 165 kts 281°
2026-05-05 09:05 52.60295 9.53440 7903 ft 164 kts 281°
2026-05-05 09:05 52.60555 9.51619 7904 ft 163 kts 281°
2026-05-05 09:06 52.60814 9.49811 7905 ft 162 kts 281°
2026-05-05 09:06 52.61071 9.48007 7904 ft 162 kts 281°
2026-05-05 09:06 52.61328 9.46202 7904 ft 162 kts 281°
2026-05-05 09:06 52.61584 9.44398 7904 ft 162 kts 281°
2026-05-05 09:07 52.61840 9.42598 7906 ft 161 kts 281°
2026-05-05 09:07 52.62095 9.40797 7909 ft 162 kts 281°
2026-05-05 09:07 52.62361 9.38981 7906 ft 163 kts 284°
2026-05-05 09:07 52.62954 9.37391 7908 ft 167 kts 313°
2026-05-05 09:08 52.63955 9.36404 7922 ft 171 kts 337°
2026-05-05 09:08 52.65080 9.35762 7927 ft 172 kts 337°
2026-05-05 09:08 52.66196 9.35092 7920 ft 173 kts 336°
2026-05-05 09:08 52.67324 9.34417 7920 ft 172 kts 336°
2026-05-05 09:09 52.68445 9.33744 7917 ft 171 kts 336°
2026-05-05 09:09 52.69564 9.33072 7915 ft 171 kts 336°
2026-05-05 09:09 52.70683 9.32401 7913 ft 171 kts 336°
2026-05-05 09:09 52.71800 9.31730 7912 ft 171 kts 337°
2026-05-05 09:10 52.72919 9.31060 7911 ft 171 kts 336°
2026-05-05 09:10 52.74036 9.30391 7912 ft 171 kts 337°
2026-05-05 09:10 52.75155 9.29718 7911 ft 171 kts 336°
2026-05-05 09:10 52.76277 9.29043 7910 ft 171 kts 336°
2026-05-05 09:11 52.77397 9.28373 7925 ft 171 kts 336°
2026-05-05 09:11 52.78512 9.27701 7924 ft 171 kts 336°
2026-05-05 09:11 52.79627 9.27029 7927 ft 171 kts 337°
2026-05-05 09:11 52.80744 9.26357 7926 ft 171 kts 336°
2026-05-05 09:12 52.81861 9.25686 7923 ft 171 kts 337°
2026-05-05 09:12 52.82976 9.25013 7923 ft 171 kts 336°
2026-05-05 09:12 52.84091 9.24340 7923 ft 171 kts 336°
2026-05-05 09:12 52.85206 9.23667 7923 ft 171 kts 336°
2026-05-05 09:13 52.86323 9.22992 7929 ft 171 kts 336°
2026-05-05 09:13 52.87442 9.22316 7927 ft 171 kts 336°
2026-05-05 09:13 52.88558 9.21639 7925 ft 170 kts 336°
2026-05-05 09:13 52.89538 9.20629 7924 ft 165 kts 310°
2026-05-05 09:14 52.90162 9.19098 7928 ft 162 kts 296°
2026-05-05 09:14 52.90706 9.17461 7930 ft 162 kts 297°
2026-05-05 09:14 52.91257 9.15843 7931 ft 161 kts 297°
2026-05-05 09:14 52.91806 9.14223 7933 ft 162 kts 297°
2026-05-05 09:15 52.92359 9.12593 7941 ft 163 kts 296°
2026-05-05 09:15 52.92918 9.10944 7941 ft 165 kts 296°
2026-05-05 09:15 52.93481 9.09286 7943 ft 165 kts 296°
2026-05-05 09:15 52.94042 9.07618 7943 ft 166 kts 296°
2026-05-05 09:16 52.94611 9.05933 7939 ft 167 kts 296°
2026-05-05 09:16 52.95177 9.04259 7936 ft 166 kts 296°
2026-05-05 09:16 52.95738 9.02596 7934 ft 165 kts 297°
2026-05-05 09:16 52.96297 9.00934 7932 ft 165 kts 296°
2026-05-05 09:17 52.96857 8.99277 7933 ft 164 kts 297°
2026-05-05 09:17 52.97413 8.97621 7933 ft 164 kts 297°
2026-05-05 09:17 52.97971 8.95964 7933 ft 164 kts 297°
2026-05-05 09:17 52.98519 8.94332 7934 ft 164 kts 296°
2026-05-05 09:18 52.99076 8.92680 7932 ft 164 kts 296°
2026-05-05 09:18 52.99631 8.91028 7932 ft 164 kts 296°
2026-05-05 09:18 53.00185 8.89377 7932 ft 164 kts 297°
2026-05-05 09:18 53.00740 8.87718 7933 ft 164 kts 297°
2026-05-05 09:19 53.01298 8.86060 7935 ft 165 kts 297°
2026-05-05 09:19 53.01860 8.84395 7937 ft 165 kts 297°
2026-05-05 09:19 53.02433 8.82734 7939 ft 166 kts 297°
2026-05-05 09:19 53.03008 8.81061 7938 ft 167 kts 297°
2026-05-05 09:20 53.03592 8.79353 7785 ft 174 kts 297°
2026-05-05 09:20 53.04206 8.77584 7591 ft 179 kts 298°
2026-05-05 09:20 53.04787 8.75769 7394 ft 181 kts 288°
2026-05-05 09:20 53.04799 8.73715 7178 ft 179 kts 252°
2026-05-05 09:21 53.04230 8.71958 6972 ft 170 kts 236°
2026-05-05 09:21 53.03522 8.70413 6766 ft 167 kts 233°
2026-05-05 09:21 53.02817 8.68889 6565 ft 165 kts 233°
2026-05-05 09:21 53.02462 8.67773 6432 ft 162 kts 256°
2026-05-05 09:22 53.02353 8.65970 6218 ft 150 kts 255°
2026-05-05 09:22 53.02042 8.64395 6001 ft 142 kts 252°
2026-05-05 09:22 53.01731 8.62858 5776 ft 136 kts 251°
2026-05-05 09:22 53.01416 8.61388 5549 ft 134 kts 251°
2026-05-05 09:23 53.01096 8.59924 5353 ft 137 kts 251°
2026-05-05 09:23 53.00765 8.58405 5153 ft 142 kts 251°
2026-05-05 09:23 53.00431 8.56882 4964 ft 142 kts 251°
2026-05-05 09:23 53.00095 8.55340 4767 ft 142 kts 251°
2026-05-05 09:24 52.99759 8.53811 4575 ft 141 kts 251°
2026-05-05 09:24 52.99424 8.52288 4367 ft 141 kts 251°
2026-05-05 09:24 52.99086 8.50756 4158 ft 142 kts 251°
2026-05-05 09:24 52.98746 8.49212 3947 ft 143 kts 256°
2026-05-05 09:25 52.98861 8.47610 3737 ft 143 kts 299°
2026-05-05 09:25 52.99603 8.46574 3534 ft 143 kts 342°
2026-05-05 09:25 53.00572 8.46651 3341 ft 143 kts 24°
2026-05-05 09:25 53.01346 8.47698 3157 ft 147 kts 43°
2026-05-05 09:26 53.02084 8.48902 3018 ft 148 kts 44°
2026-05-05 09:26 53.02817 8.50067 3017 ft 143 kts 43°
2026-05-05 09:26 53.03511 8.51205 3003 ft 137 kts 50°
2026-05-05 09:26 53.03953 8.52553 3000 ft 130 kts 66°
2026-05-05 09:27 53.04092 8.54000 2925 ft 130 kts 83°
2026-05-05 09:27 53.04164 8.55476 2712 ft 127 kts 85°
2026-05-05 09:27 53.04209 8.56929 2501 ft 124 kts 84°
2026-05-05 09:27 53.04247 8.58347 2284 ft 122 kts 84°
2026-05-05 09:28 53.04280 8.59742 2074 ft 120 kts 84°
2026-05-05 09:28 53.04309 8.61066 1941 ft 109 kts 84°
2026-05-05 09:28 53.04336 8.62275 1829 ft 101 kts 83°
2026-05-05 09:28 53.04361 8.63423 1719 ft 99 kts 83°
2026-05-05 09:29 53.04387 8.64564 1609 ft 100 kts 83°
2026-05-05 09:29 53.04413 8.65727 1501 ft 102 kts 84°
2026-05-05 09:29 53.04437 8.66916 1380 ft 103 kts 83°
2026-05-05 09:29 53.04464 8.68117 1240 ft 105 kts 84°
2026-05-05 09:30 53.04489 8.69344 1083 ft 107 kts 83°
2026-05-05 09:30 53.04517 8.70595 889 ft 111 kts 83°
2026-05-05 09:30 53.04550 8.71891 711 ft 112 kts 83°
2026-05-05 09:30 53.04571 8.73186 576 ft 112 kts 86°
2026-05-05 09:31 53.04575 8.74418 430 ft 103 kts 83°
2026-05-05 09:31 53.04605 8.75488 326 ft 84 kts 79°
2026-05-05 09:31 53.04636 8.76442 192 ft 83 kts 83°
2026-05-05 09:31 53.04657 8.77393 53 ft 81 kts 83°
2026-05-05 09:32 53.04674 8.78258 20 ft 65 kts 84°
2026-05-05 09:32 53.04693 8.78617 23 ft 12 kts 34°
2026-05-05 09:32 53.04766 8.78667 18 ft 12 kts
2026-05-05 09:32 53.04829 8.78660 19 ft 10 kts 338°
2026-05-05 09:33 53.04895 8.78558 20 ft 15 kts 320°
2026-05-05 09:33 53.04955 8.78472 21 ft 10 kts 319°
2026-05-05 09:33 53.04987 8.78418 21 ft 3 kts 279°
2026-05-05 09:33 53.04964 8.78366 21 ft 5 kts 230°
2026-05-05 09:34 53.04958 8.78354 21 ft 0 kts 228°